Regional Weather Roundup
Issued by NWS Northern Indiana

Home | Current Version | Previous Version | Graphics & Text | Print | Product List | Glossary On
Versions: 1 2 3 4 5 6 7 8 9 10 11 12 13 14 15 16 17 18 19 20 21 22 23 24 25 26 27 28 29 30 31 32 33 34 35 36 37 38 39 40 41 42 43 44 45 46 47 48 49 50
000
ASUS43 KIWX 260700
RWRIWX

KIWX WEATHER ROUNDUP
NATIONAL WEATHER SERVICE NORTHERN INDIANA
300 AM EDT THU MAY 26 2016

NOTE: "FAIR" INDICATES FEW OR NO CLOUDS BELOW 12,000 FEET WITH NO
SIGNIFICANT WEATHER AND/OR OBSTRUCTIONS TO VISIBILITY.

* THESE STATIONS ARE NOT UNDER NWS QUALITY CONTROL. THEY ALSO MAY NOT
  REPORT WEATHER SUCH AS PRECIPITATION OR FOG.

INZ001>027-260800-
NORTHERN INDIANA

CITY           SKY/WX    TMP DP  RH WIND       PRES   REMARKS
SOUTH BEND     CLOUDY    66  63  90 E6        29.98F
GOSHEN         CLOUDY    67  62  84 NE5       29.99S
ANGOLA*        PTCLDY    68  64  88 N6        30.01R
FORT WAYNE     CLOUDY    70  62  76 SW7       30.00F
PERU/GRISSOM   CLOUDY    69  64  84 SW9       29.99S

$$
INZ028>050-260800-
CENTRAL INDIANA

CITY           SKY/WX    TMP DP  RH WIND       PRES   REMARKS
LAFAYETTE      CLOUDY    70  64  81 SW8       29.98S
KOKOMO*        CLOUDY    70  61  73 SW9       30.01R
MUNCIE*        CLOUDY    71  62  73 SW8       30.02S
INDIANAPOLIS   CLOUDY    69  63  81 S8        30.01S

$$
MIZ043>046-050>051-056>058-064>065-071>073-077>080-260800-
SOUTHWEST LOWER MICHIGAN

CITY           SKY/WX    TMP DP  RH WIND       PRES   REMARKS
BATTLE CREEK   CLOUDY    63  61  93 SE5       29.99F
BENTON HARBOR  CLOUDY    65  62  90 SE6       29.95R
COLDWATER*     CLOUDY    66  62  85 N7        30.01S
HILLSDALE*     CLOUDY    68  62  80 NW8       30.02R
HOLLAND        CLOUDY    65  63  93 S8        29.93F
GRAND RAPIDS   CLOUDY    66  63  90 S8        29.95F
KALAMAZOO      CLOUDY    65  61  87 CALM      29.97F
STURGIS*       CLOUDY    65  63  90 NE5       29.99F
THREE RIVERS*  FAIR      66  63  90 SE5       29.98F

$$
OHZ001>008-015>018-024>025-260800-
NORTHWEST OHIO

CITY           SKY/WX    TMP DP  RH WIND       PRES   REMARKS
DEFIANCE       CLOUDY    72  62  71 SW6       29.99F
FINDLAY        CLOUDY    69  60  73 S9        30.01S
TOLEDO EXPRESS CLOUDY    70  61  73 S8        29.99F
TOLEDO METCALF MOCLDY    71  60  68 S8        30.00F
LIMA           CLOUDY    69  62  78 S6        30.03S

$$
AND FOR LAKE MICHIGAN COASTAL AND OPEN LAKE BUOY OBSERVATIONS

STATION/POSITION TEMP    WIND        PRES    VSBY  WAVE
                 AIR SEA DIR/SP/G                  HT/PER
                 (F)     (DEG/KT/KT) (MB)    (MI)  (FT/S)
CALUMET HARBOR    63     120/  5/  9 1013.3F
MICHIGAN CITY     65      90/  8/ 10   N/A
BURNS HARBOR      69     150/  5/  9 1014.6F
SAINT JOSEPH      65      CALM  /  5 1014.2F
SOUTH LAKE BUOY   55 49  150/ 14/ 14 1012.4          1/ 3
4 MI NW BRIDGMAN  63 60  120/ 10/ 12   N/A           1/ 3
MICHIGAN CITY     61 58  110/  8/ 10   N/A           1/ 2

$$
&&




USA.gov is the U.S. government's official web portal to all federal, state and local government web resources and services.